Regional Weather Roundup
Issued by NWS

Home | Current Version | Previous Version | Graphics & Text | Print | Product List | Glossary On
Versions: 1 2 3 4 5 6 7 8 9 10 11 12 13 14 15 16 17 18 19 20 21 22 23 24 25 26 27 28 29 30 31 32 33 34 35 36 37 38 39 40 41 42 43 44 45 46 47 48 49 50
000
ASUS43 KFSD 221702
RWRSD

WEATHER ROUNDUP FOR SOUTH DAKOTA
NATIONAL WEATHER SERVICE SIOUX FALLS SD
1100 AM CST SUN JAN 22 2017

NOTE: "FAIR" INDICATES FEW OR NO CLOUDS BELOW 12,000 FEET WITH NO
SIGNIFICANT WEATHER AND/OR OBSTRUCTIONS TO VISIBILITY.


SDZ001>005-009-010-012>017-221800-
NORTHWEST AND NORTH CENTRAL SOUTH DAKOTA

CITY           SKY/WX    TMP DP  RH WIND       PRES   REMARKS
BUFFALO          N/A     24  19  81 W10       29.76R WCI  14
FAITH            N/A     20  17  88 N6        29.84R WCI  12
MOBRIDGE       CLOUDY    24  20  84 NW8       29.80R FOG     WCI  15
$$

SDZ012>016-024>037-041>051-057-063-072>074-221800-
SOUTHWEST AND SOUTH CENTRAL SOUTH DAKOTA

CITY           SKY/WX    TMP DP  RH WIND       PRES   REMARKS
RAPID CTY ARPT SUNNY     38  24  57 N10       29.85R
PIERRE         SUNNY     26  21  81 W9        29.85R WCI  17
CUSTER         CLOUDY    32  14  47 W9        29.81R WCI  24
ELLSWORTH AFB  SUNNY     36  23  60 N13       29.84R
PHILIP         SUNNY     30  24  78 W10       29.87R WCI  21
PINE RIDGE     CLOUDY    31  26  82 W7        29.88R WCI  24
SPEARFISH      FAIR      36  19  51 W15       29.83S
WINNER         FAIR      34  28  79 NW13      29.85R WCI  25
$$

SDZ004>011-016>023-039-040-221800-
NORTHEAST SOUTH DAKOTA

CITY           SKY/WX    TMP DP  RH WIND       PRES   REMARKS
ABERDEEN       CLOUDY    29  25  85 W9        29.81R FOG     WCI  20
WATERTOWN      CLOUDY    29  28  96 W12       29.76R FOG     WCI  19
BROOKINGS      CLOUDY    30  29  96 W13       29.76S FOG     WCI  20
SISSETON         N/A     32  30  92 NW10      29.77R WCI  24
$$

SDZ017-020-022-023-036>040-048>070-221800-
SOUTHEAST SOUTH DAKOTA

CITY           SKY/WX    TMP DP  RH WIND       PRES   REMARKS
SIOUX FALLS    CLOUDY    32  31  96 NW12      29.78S FOG     WCI  23
HURON          CLOUDY    25  25 100 NW12      29.83R FOG     WCI  14
CHAMBERLAIN    SUNNY     30  27  90 W9        29.86R WCI  22
MITCHELL       SUNNY     30  26  85 N13       29.84R WCI  20
YANKTON        CLOUDY    28  27  93 NW10      29.83R WCI  19
$$

ABBREVIATIONS USED IN REMARKS
   TC - TEMPERATURE IN CELSIUS
  WCI - WIND CHILL INDEX
   HX - HEAT INDEX
  VSB - VISIBILITY




USA.gov is the U.S. government's official web portal to all federal, state and local government web resources and services.